CDT,Max TemperatureF,Mean TemperatureF,Min TemperatureF,Max Dew PointF,MeanDew PointF,Min DewpointF,Max Humidity, Mean Humidity, Min Humidity, Max Sea Level PressureIn, Mean Sea Level PressureIn, Min Sea Level PressureIn, Max VisibilityMiles, Mean VisibilityMiles, Min VisibilityMiles, Max Wind SpeedMPH, Mean Wind SpeedMPH, Max Gust SpeedMPH,PrecipitationIn, CloudCover, Events, WindDirDegrees
2013-3-1,32,27,22,23,19,16,75,64,53,30.40,30.31,30.25,10,10,10,16,6,24,0.00,7,,360
2013-3-2,42,28,13,25,18,11,92,68,44,30.42,30.32,30.12,10,10,8,10,4,14,0.00,0,,198
2013-3-3,49,37,25,34,29,22,84,70,56,30.13,29.89,29.68,10,10,10,16,5,21,0.00,0,,131
2013-3-4,47,38,29,34,32,29,92,76,60,30.06,29.83,29.65,10,10,8,13,6,23,0.02,4,Rain,2
2013-3-5,40,31,22,28,18,14,92,66,40,30.43,30.29,30.10,10,10,10,20,8,32,T,2,,323
2013-3-6,46,30,14,22,19,12,96,67,37,30.48,30.38,30.22,10,10,10,14,5,17,0.00,0,,112
2013-3-7,61,43,25,34,27,21,81,55,29,30.25,30.15,30.06,10,10,10,22,10,25,0.00,0,,103
2013-3-8,66,50,34,47,38,28,82,62,42,30.13,30.03,29.88,10,10,5,24,11,31,T,4,,143
2013-3-9,59,53,47,56,50,41,96,76,55,29.88,29.67,29.56,10,8,2,20,11,29,0.47,6,Rain,200
2013-3-10,47,36,24,45,27,18,92,84,75,30.04,29.85,29.58,10,6,1,21,11,35,0.01,8,Rain-Snow,347
2013-3-11,44,31,18,24,17,12,84,57,30,30.06,30.01,29.96,10,10,10,14,7,20,0.00,3,,284
2013-3-12,49,35,21,28,22,17,85,58,31,30.41,30.25,30.05,10,10,10,21,6,33,0.00,2,,315
2013-3-13,51,34,16,25,21,15,92,60,28,30.51,30.40,30.27,10,10,10,14,3,17,0.00,1,,160
2013-3-14,76,54,32,38,32,24,76,49,21,30.26,30.13,30.06,10,10,10,18,5,22,0.00,0,,255
2013-3-15,86,60,33,47,38,31,92,55,17,30.07,29.82,29.64,10,10,10,21,7,26,0.00,0,,235
2013-3-16,51,42,33,41,32,26,86,70,53,30.10,30.00,29.78,10,9,5,24,15,29,0.00,5,,32
2013-3-17,42,37,31,33,30,26,92,81,70,30.08,29.91,29.73,10,9,6,20,10,26,0.05,8,Rain,84
2013-3-18,56,45,33,34,28,17,92,58,24,30.08,29.91,29.77,10,8,5,17,6,24,T,4,Rain,318
2013-3-19,48,36,24,38,30,17,100,76,51,30.31,30.22,30.11,10,8,1,15,3,22,0.14,7,Rain-Snow,232
2013-3-20,43,34,24,33,19,14,96,65,34,30.47,30.33,30.12,10,10,8,17,5,25,0.00,2,,15
2013-3-21,43,36,29,27,21,12,85,62,38,30.09,29.94,29.84,10,10,6,23,13,30,0.00,6,,93
2013-3-22,38,34,29,31,28,26,92,84,76,30.03,29.97,29.93,10,6,2,12,6,14,0.01,8,Snow,58
2013-3-23,37,34,30,32,29,26,96,83,70,30.06,29.97,29.90,10,4,0,28,13,36,0.10,8,Fog-Snow,45
2013-3-24,35,30,24,27,23,16,92,71,49,30.19,30.05,29.96,10,5,0,17,10,29,0.09,6,Fog-Snow,357
2013-3-25,35,29,23,22,19,16,81,68,54,30.42,30.28,30.16,10,9,3,16,7,28,T,6,Snow,330
2013-3-26,42,28,14,24,19,11,88,67,46,30.46,30.38,30.29,10,10,10,13,4,18,0.00,0,,169
2013-3-27,57,43,29,34,28,21,78,59,39,30.29,30.21,30.13,10,10,10,17,8,22,0.00,2,,102
2013-3-28,66,49,31,38,32,27,85,57,29,30.22,30.18,30.10,10,9,5,12,5,16,0.00,0,,59
2013-3-29,73,56,38,49,42,37,82,57,31,30.20,30.12,30.04,10,9,6,16,8,22,0.00,1,,99
2013-3-30,72,60,48,54,50,41,100,77,53,30.05,29.94,29.86,10,7,0,18,4,23,0.13,4,Fog-Rain-Thunderstorm,36
2013-3-31,66,55,43,47,37,27,93,59,24,30.04,30.00,29.95,10,10,5,23,6,28,0.05,2,Rain,328